Location: Bathurst
(33.4193°S, 149.5775°E)
Time: 16:56:48
(UTC+10:00)

Tiros 1 - All Passes

Search period start: 15 June 2021 00:00
Search period end: 25 June 2021 00:00
Orbit: 630 x 664 km, 48.4° (Epoch: 14 June)

Date Brightness Start Highest point End Pass type
(mag) Time Alt. Az. Time Alt. Az. Time Alt. Az.
15 Jun - 00:28:00 10° W 00:32:24 35° SSW 00:36:46 10° SE night (unlit)
15 Jun - 02:13:06 10° SW 02:15:42 14° S 02:18:19 10° SSE night (unlit)
15 Jun - 03:56:52 10° SSW 03:59:31 15° S 04:02:09 10° SE visible
15 Jun - 05:38:24 10° SW 05:42:46 37° SSE 05:47:06 10° E visible
15 Jun - 07:20:38 10° WSW 07:24:57 37° NW 07:29:13 10° NNE daylight
15 Jun - 21:31:27 10° NNE 21:34:17 16° NE 21:37:06 10° E night (unlit)
15 Jun - 23:11:12 10° NW 23:16:00 79° SW 23:20:48 10° SE night (unlit)
16 Jun - 00:55:09 10° WSW 00:58:47 21° SSW 01:02:24 10° SSE night (unlit)
16 Jun - 02:40:19 10° SSW 02:42:27 13° S 02:44:36 10° SSE night (unlit)
16 Jun - 04:22:34 10° SSW 04:26:08 21° SSE 04:29:39 10° ESE visible
16 Jun - 06:04:10 10° SW 06:08:53 80° SE 06:13:32 10° NE visible
16 Jun - 07:48:01 10° W 07:50:34 15° NW 07:53:05 10° NNW daylight
16 Jun - 21:55:27 10° NNW 21:59:55 39° NE 22:04:22 10° ESE night (unlit)
16 Jun - 23:37:39 10° W 23:42:07 38° SSW 23:46:35 10° SE night (unlit)
17 Jun - 01:22:39 10° SW 01:25:23 15° SSW 01:28:06 10° SSE night (unlit)
17 Jun - 03:06:36 10° SSW 03:09:11 14° S 03:11:47 10° SE visible
17 Jun - 04:48:10 10° SW 04:52:30 35° SSE 04:56:47 10° E visible
17 Jun - 06:30:20 10° WSW 06:34:45 41° NW 06:39:05 10° NNE visible
17 Jun - 20:41:35 10° NNE 20:44:04 14° NE 20:46:33 10° E night (unlit)
17 Jun - 22:20:56 10° NW 22:25:45 86° SW 22:30:34 10° SE night (unlit)
18 Jun - 00:04:44 10° WSW 00:08:29 22° SSW 00:12:12 10° SSE night (unlit)
18 Jun - 01:49:56 10° SSW 01:52:07 13° S 01:54:17 10° SSE night (unlit)
18 Jun - 03:32:20 10° SSW 03:35:49 20° SSE 03:39:16 10° ESE visible
18 Jun - 05:13:56 10° SW 05:18:39 73° SE 05:23:18 10° ENE visible
18 Jun - 06:57:29 10° W 07:00:23 16° NW 07:03:14 10° NNW daylight
18 Jun - 21:05:19 10° NNW 21:09:41 35° NE 21:14:04 10° ESE night (unlit)
18 Jun - 22:47:17 10° WNW 22:51:50 40° SSW 22:56:23 10° SE night (unlit)
19 Jun - 00:32:13 10° SW 00:35:04 15° SSW 00:37:53 10° SSE night (unlit)
19 Jun - 02:16:20 10° SSW 02:18:52 14° S 02:21:24 10° SE night (unlit)
19 Jun - 03:57:57 10° SW 04:02:14 33° SSE 04:06:27 10° E visible
19 Jun - 05:40:02 10° WSW 05:44:32 46° NW 05:48:57 10° NNE visible
19 Jun - 19:51:50 10° NNE 19:53:52 13° NE 19:55:54 10° ENE night (unlit)
19 Jun - 21:30:40 10° NW 21:35:30 86° NE 21:40:21 10° SE night (unlit)
19 Jun - 23:14:19 10° WSW 23:18:10 23° SSW 23:22:00 10° SSE night (unlit)
20 Jun - 00:59:33 10° SSW 01:01:47 13° S 01:04:01 10° SSE night (unlit)
20 Jun - 02:42:07 10° SSW 02:45:31 19° SSE 02:48:53 10° ESE night (unlit)
20 Jun - 04:23:41 10° SW 04:28:24 67° SE 04:33:02 10° ENE visible
20 Jun - 06:07:00 10° W 06:10:11 18° NW 06:13:19 10° N visible
20 Jun - 20:15:11 10° NNW 20:19:28 32° NE 20:23:44 10° ESE visible
20 Jun - 21:56:57 10° WNW 22:01:33 44° SSW 22:06:10 10° SE night (unlit)
20 Jun - 23:41:46 10° SW 23:44:44 16° SSW 23:47:41 10° SSE night (unlit)
21 Jun - 01:26:04 10° SSW 01:28:33 14° S 01:31:01 10° SE night (unlit)
21 Jun - 03:07:44 10° SW 03:11:58 31° SSE 03:16:07 10° E visible
21 Jun - 04:49:44 10° WSW 04:54:19 51° NW 04:58:48 10° NNE visible
21 Jun - 19:02:16 10° NE 19:03:39 11° NE 19:05:04 10° ENE visible
21 Jun - 20:40:26 10° NW 20:45:15 79° NE 20:50:05 10° SE visible
21 Jun - 22:23:54 10° W 22:27:52 24° SSW 22:31:49 10° SSE night (unlit)
22 Jun - 00:09:09 10° SSW 00:11:27 13° S 00:13:44 10° SSE night (unlit)
22 Jun - 01:51:53 10° SSW 01:55:12 18° SSE 01:58:30 10° ESE night (unlit)
22 Jun - 03:33:27 10° SW 03:38:09 61° SE 03:42:46 10° ENE visible
22 Jun - 05:16:33 10° W 05:19:59 20° NW 05:23:23 10° N visible
22 Jun - 19:25:05 10° NNW 19:29:14 29° NE 19:33:24 10° ESE visible
22 Jun - 21:06:37 10° WNW 21:11:17 47° SSW 21:15:57 10° SE night (unlit)
22 Jun - 22:51:20 10° SW 22:54:25 16° SSW 22:57:28 10° SSE night (unlit)
23 Jun - 00:35:46 10° SSW 00:38:13 14° S 00:40:39 10° SE night (unlit)
23 Jun - 02:17:31 10° SW 02:21:41 29° SSE 02:25:47 10° E night (unlit)
23 Jun - 03:59:26 10° WSW 04:04:05 57° NW 04:08:39 10° NE visible
23 Jun - 19:50:11 10° NW 19:55:00 72° NE 19:59:50 10° SE visible
23 Jun - 21:33:31 10° W 21:37:34 26° SSW 21:41:37 10° SSE night (unlit)
23 Jun - 23:18:45 10° SW 23:21:06 13° S 23:23:28 10° SSE night (unlit)
24 Jun - 01:01:39 10° SSW 01:04:53 18° SSE 01:08:07 10° ESE night (unlit)
24 Jun - 02:43:12 10° SW 02:47:54 56° SE 02:52:30 10° ENE night (unlit)
24 Jun - 04:26:08 10° W 04:29:47 22° NW 04:33:24 10° N visible
24 Jun - 18:35:00 10° N 18:39:00 26° NE 18:43:02 10° ESE visible
24 Jun - 20:16:17 10° WNW 20:21:00 51° SW 20:25:44 10° SE visible
24 Jun - 22:00:53 10° WSW 22:04:05 17° SSW 22:07:16 10° SSE night (unlit)
24 Jun - 23:45:28 10° SSW 23:47:53 14° S 23:50:16 10° SE night (unlit)
